Time,TemperatureF,DewpointF,PressureIn,WindDirection,WindDirectionDegrees,WindSpeedMPH,WindSpeedGustMPH,Humidity,HourlyPrecipIn,Conditions,Clouds,dailyrainin,SoftwareType,DateUTC
2013-03-29 00:22:00,44.0,31.0,30.33,North,0,0.0,4.0,61,0.00,,,-99.99,,2013-03-29 07:22:00,
2013-03-29 00:32:00,44.0,31.0,30.33,North,0,0.0,4.0,61,0.00,,,-99.99,,2013-03-29 07:32:00,
2013-03-29 00:42:00,44.0,31.0,30.33,North,0,0.0,4.0,61,0.00,,,-99.99,,2013-03-29 07:42:00,
2013-03-29 00:52:00,44.0,31.0,30.33,North,0,0.0,4.0,61,0.00,,,-99.99,,2013-03-29 07:52:00,
2013-03-29 01:22:00,43.0,32.0,30.38,North,0,0.0,4.0,64,0.00,,,-99.99,,2013-03-29 08:22:00,
2013-03-29 01:32:00,43.0,32.0,30.38,North,0,0.0,4.0,64,0.00,,,-99.99,,2013-03-29 08:32:00,
2013-03-29 01:42:00,43.0,32.0,30.38,North,0,0.0,4.0,64,0.00,,,-99.99,,2013-03-29 08:42:00,
2013-03-29 01:52:00,43.0,32.0,30.38,North,0,0.0,4.0,64,0.00,,,-99.99,,2013-03-29 08:52:00,
2013-03-29 02:22:00,42.0,31.0,30.39,North,0,0.0,4.0,66,0.00,,,-99.99,,2013-03-29 09:22:00,
2013-03-29 02:32:00,42.0,31.0,30.39,North,0,0.0,4.0,66,0.00,,,-99.99,,2013-03-29 09:32:00,
2013-03-29 02:42:00,42.0,31.0,30.39,North,0,0.0,4.0,66,0.00,,,-99.99,,2013-03-29 09:42:00,
2013-03-29 02:52:00,42.0,31.0,30.39,North,0,0.0,4.0,66,0.00,,,-99.99,,2013-03-29 09:52:00,
2013-03-29 03:22:00,42.0,31.0,30.24,North,0,0.0,4.0,65,0.00,,,-99.99,,2013-03-29 10:22:00,
2013-03-29 03:33:00,42.0,31.0,30.24,North,0,0.0,4.0,65,0.00,,,-99.99,,2013-03-29 10:33:00,
2013-03-29 03:42:00,42.0,31.0,30.24,North,0,0.0,4.0,65,0.00,,,-99.99,,2013-03-29 10:42:00,
2013-03-29 03:52:00,42.0,31.0,30.24,North,0,0.0,4.0,65,0.00,,,-99.99,,2013-03-29 10:52:00,
2013-03-29 04:23:00,42.0,31.0,30.18,North,0,0.0,4.0,65,0.00,,,-99.99,,2013-03-29 11:23:00,
2013-03-29 04:32:00,42.0,31.0,30.18,North,0,0.0,4.0,65,0.00,,,-99.99,,2013-03-29 11:32:00,
2013-03-29 04:42:00,42.0,31.0,30.18,North,0,0.0,4.0,65,0.00,,,-99.99,,2013-03-29 11:42:00,
2013-03-29 04:52:00,42.0,31.0,30.18,North,0,0.0,4.0,65,0.00,,,-99.99,,2013-03-29 11:52:00,
2013-03-29 05:22:00,42.0,31.0,30.16,North,0,0.0,4.0,64,0.00,,,-99.99,,2013-03-29 12:22:00,
2013-03-29 05:32:00,42.0,31.0,30.16,North,0,0.0,4.0,64,0.00,,,-99.99,,2013-03-29 12:32:00,
2013-03-29 05:42:00,42.0,31.0,30.16,North,0,0.0,4.0,64,0.00,,,-99.99,,2013-03-29 12:42:00,
2013-03-29 05:52:00,42.0,31.0,30.16,North,0,0.0,4.0,64,0.00,,,-99.99,,2013-03-29 12:52:00,
2013-03-29 06:22:00,41.0,30.0,30.30,North,0,0.0,4.0,65,0.00,,,-99.99,,2013-03-29 13:22:00,
2013-03-29 06:32:00,41.0,30.0,30.30,North,0,0.0,4.0,65,0.00,,,-99.99,,2013-03-29 13:32:00,
2013-03-29 06:42:00,41.0,30.0,30.30,North,0,0.0,4.0,65,0.00,,,-99.99,,2013-03-29 13:42:00,
2013-03-29 06:52:00,41.0,30.0,30.30,North,0,0.0,4.0,65,0.00,,,-99.99,,2013-03-29 13:52:00,
2013-03-29 07:22:00,41.0,30.0,30.36,North,0,0.0,4.0,65,0.00,,,-99.99,,2013-03-29 14:22:00,
2013-03-29 07:32:00,41.0,30.0,30.36,North,0,0.0,4.0,65,0.00,,,-99.99,,2013-03-29 14:32:00,
2013-03-29 07:42:00,41.0,30.0,30.36,North,0,0.0,4.0,65,0.00,,,-99.99,,2013-03-29 14:42:00,
2013-03-29 07:52:00,41.0,30.0,30.36,North,0,0.0,4.0,65,0.00,,,-99.99,,2013-03-29 14:52:00,
2013-03-29 08:22:00,42.0,32.0,30.46,North,0,0.0,4.0,67,0.00,,,-99.99,,2013-03-29 15:22:00,
2013-03-29 08:33:00,42.0,32.0,30.46,North,0,0.0,4.0,67,0.00,,,-99.99,,2013-03-29 15:33:00,
2013-03-29 08:42:00,42.0,32.0,30.46,North,0,0.0,4.0,67,0.00,,,-99.99,,2013-03-29 15:42:00,
2013-03-29 08:52:00,42.0,32.0,30.46,North,0,0.0,4.0,67,0.00,,,-99.99,,2013-03-29 15:52:00,
2013-03-29 09:23:00,46.0,34.0,30.54,North,0,0.0,4.0,63,0.00,,,-99.99,,2013-03-29 16:23:00,
2013-03-29 09:32:00,46.0,34.0,30.54,North,0,0.0,4.0,63,0.00,,,-99.99,,2013-03-29 16:32:00,
2013-03-29 10:22:00,55.0,33.0,30.62,North,0,0.0,4.0,43,0.00,,,-99.99,,2013-03-29 17:22:00,
2013-03-29 10:33:00,55.0,33.0,30.62,North,0,0.0,4.0,43,0.00,,,-99.99,,2013-03-29 17:33:00,
2013-03-29 10:42:00,55.0,33.0,30.62,North,0,0.0,4.0,43,0.00,,,-99.99,,2013-03-29 17:42:00,
2013-03-29 10:52:00,55.0,33.0,30.62,North,0,0.0,4.0,43,0.00,,,-99.99,,2013-03-29 17:52:00,
2013-03-29 11:22:00,57.0,35.0,30.68,WSW,240,3.0,4.0,43,0.00,,,-99.99,,2013-03-29 18:22:00,
2013-03-29 11:32:00,57.0,35.0,30.68,WSW,240,3.0,4.0,43,0.00,,,-99.99,,2013-03-29 18:32:00,
2013-03-29 11:42:00,57.0,35.0,30.68,WSW,240,3.0,4.0,43,0.00,,,-99.99,,2013-03-29 18:42:00,
2013-03-29 11:52:00,57.0,35.0,30.68,WSW,240,3.0,4.0,43,0.00,,,-99.99,,2013-03-29 18:52:00,
2013-03-29 12:22:00,60.0,37.0,30.66,West,260,1.0,7.0,43,0.00,,,-99.99,,2013-03-29 19:22:00,
2013-03-29 12:32:00,60.0,37.0,30.66,West,260,1.0,7.0,43,0.00,,,-99.99,,2013-03-29 19:32:00,
2013-03-29 12:42:00,60.0,37.0,30.66,West,260,1.0,7.0,43,0.00,,,-99.99,,2013-03-29 19:42:00,
2013-03-29 12:52:00,60.0,37.0,30.66,West,260,1.0,7.0,43,0.00,,,-99.99,,2013-03-29 19:52:00,
2013-03-29 13:22:00,62.0,39.0,30.53,West,260,2.0,5.0,42,0.00,,,-99.99,,2013-03-29 20:22:00,
2013-03-29 13:32:00,62.0,39.0,30.53,West,260,2.0,5.0,42,0.00,,,-99.99,,2013-03-29 20:32:00,
2013-03-29 13:42:00,62.0,39.0,30.53,West,260,2.0,5.0,42,0.00,,,-99.99,,2013-03-29 20:42:00,
2013-03-29 13:52:00,62.0,39.0,30.53,West,260,2.0,5.0,42,0.00,,,-99.99,,2013-03-29 20:52:00,
2013-03-29 14:22:00,63.0,38.0,30.37,West,260,1.0,5.0,40,0.00,,,-99.99,,2013-03-29 21:22:00,
2013-03-29 14:32:00,63.0,38.0,30.37,West,260,1.0,5.0,40,0.00,,,-99.99,,2013-03-29 21:32:00,
2013-03-29 14:42:00,63.0,38.0,30.37,West,260,1.0,5.0,40,0.00,,,-99.99,,2013-03-29 21:42:00,
2013-03-29 14:53:00,63.0,38.0,30.37,West,260,1.0,5.0,40,0.00,,,-99.99,,2013-03-29 21:53:00,
2013-03-29 15:22:00,63.0,38.0,30.25,West,280,1.0,5.0,40,0.00,,,-99.99,,2013-03-29 22:22:00,
2013-03-29 15:33:00,63.0,38.0,30.25,West,280,1.0,5.0,40,0.00,,,-99.99,,2013-03-29 22:33:00,
2013-03-29 15:42:00,63.0,38.0,30.25,West,280,1.0,5.0,40,0.00,,,-99.99,,2013-03-29 22:42:00,
2013-03-29 15:52:00,63.0,38.0,30.25,West,280,1.0,5.0,40,0.00,,,-99.99,,2013-03-29 22:52:00,
2013-03-29 16:22:00,61.0,39.0,30.19,West,270,2.0,5.0,44,0.00,,,-99.99,,2013-03-29 23:22:00,
2013-03-29 16:32:00,61.0,39.0,30.19,West,270,2.0,5.0,44,0.00,,,-99.99,,2013-03-29 23:32:00,
2013-03-29 16:42:00,61.0,39.0,30.19,West,270,2.0,5.0,44,0.00,,,-99.99,,2013-03-29 23:42:00,
2013-03-29 16:52:00,61.0,39.0,30.19,West,270,2.0,5.0,44,0.00,,,-99.99,,2013-03-29 23:52:00,
2013-03-29 17:22:00,59.0,38.0,30.13,North,0,0.0,5.0,46,0.00,,,-99.99,,2013-03-30 00:22:00,
2013-03-29 17:32:00,59.0,38.0,30.13,North,0,0.0,5.0,46,0.00,,,-99.99,,2013-03-30 00:32:00,
2013-03-29 17:42:00,59.0,38.0,30.13,North,0,0.0,5.0,46,0.00,,,-99.99,,2013-03-30 00:42:00,
2013-03-29 17:52:00,59.0,38.0,30.13,North,0,0.0,5.0,46,0.00,,,-99.99,,2013-03-30 00:52:00,
2013-03-29 18:22:00,58.0,40.0,30.14,WNW,300,1.0,5.0,52,0.00,,,-99.99,,2013-03-30 01:22:00,
2013-03-29 18:32:00,58.0,40.0,30.14,WNW,300,1.0,5.0,52,0.00,,,-99.99,,2013-03-30 01:32:00,
2013-03-29 18:42:00,58.0,40.0,30.14,WNW,300,1.0,5.0,52,0.00,,,-99.99,,2013-03-30 01:42:00,
2013-03-29 18:52:00,58.0,40.0,30.14,WNW,300,1.0,5.0,52,0.00,,,-99.99,,2013-03-30 01:52:00,
2013-03-29 19:22:00,54.0,42.0,30.14,North,0,0.0,5.0,64,0.00,,,-99.99,,2013-03-30 02:22:00,
2013-03-29 19:32:00,54.0,42.0,30.14,North,0,0.0,5.0,64,0.00,,,-99.99,,2013-03-30 02:32:00,
2013-03-29 19:42:00,54.0,42.0,30.14,North,0,0.0,5.0,64,0.00,,,-99.99,,2013-03-30 02:42:00,
2013-03-29 19:52:00,54.0,42.0,30.14,North,0,0.0,5.0,64,0.00,,,-99.99,,2013-03-30 02:52:00,
2013-03-29 20:22:00,49.0,39.0,30.18,North,0,0.0,5.0,67,0.00,,,-99.99,,2013-03-30 03:22:00,
2013-03-29 20:33:00,49.0,39.0,30.18,North,0,0.0,5.0,67,0.00,,,-99.99,,2013-03-30 03:33:00,
2013-03-29 20:43:00,49.0,39.0,30.18,North,0,0.0,5.0,67,0.00,,,-99.99,,2013-03-30 03:43:00,
2013-03-29 20:52:00,49.0,39.0,30.18,North,0,0.0,5.0,67,0.00,,,-99.99,,2013-03-30 03:52:00,
2013-03-29 21:23:00,49.0,40.0,30.43,North,0,0.0,5.0,70,0.00,,,-99.99,,2013-03-30 04:23:00,
2013-03-29 21:32:00,49.0,40.0,30.43,North,0,0.0,5.0,70,0.00,,,-99.99,,2013-03-30 04:32:00,
2013-03-29 21:42:00,49.0,40.0,30.43,North,0,0.0,5.0,70,0.00,,,-99.99,,2013-03-30 04:42:00,
2013-03-29 21:52:00,49.0,40.0,30.43,North,0,0.0,5.0,70,0.00,,,-99.99,,2013-03-30 04:52:00,
2013-03-29 22:22:00,47.0,37.0,30.47,North,0,0.0,5.0,67,0.00,,,-99.99,,2013-03-30 05:22:00,
2013-03-29 22:32:00,47.0,37.0,30.47,North,0,0.0,5.0,67,0.00,,,-99.99,,2013-03-30 05:32:00,
2013-03-29 22:42:00,47.0,37.0,30.47,North,0,0.0,5.0,67,0.00,,,-99.99,,2013-03-30 05:42:00,
2013-03-29 22:52:00,47.0,37.0,30.47,North,0,0.0,5.0,67,0.00,,,-99.99,,2013-03-30 05:52:00,
2013-03-29 23:22:00,48.0,38.0,30.52,North,0,0.0,5.0,69,0.00,,,-99.99,,2013-03-30 06:22:00,
2013-03-29 23:32:00,48.0,38.0,30.52,North,0,0.0,5.0,69,0.00,,,-99.99,,2013-03-30 06:32:00,
2013-03-29 23:42:00,48.0,38.0,30.52,North,0,0.0,5.0,69,0.00,,,-99.99,,2013-03-30 06:42:00,
2013-03-29 23:52:00,48.0,38.0,30.52,North,0,0.0,5.0,69,0.00,,,-99.99,,2013-03-30 06:52:00,